TimeEST,TemperatureF,Dew PointF,Humidity,Sea Level PressureIn,VisibilityMPH,Wind Direction,Wind SpeedMPH,Gust SpeedMPH,PrecipitationIn,Events,Conditions,WindDirDegrees,DateUTC
12:15 AM,39.6,32.0,74,30.26,10.0,North,6.9,-,N/A,,Clear,350,2013-01-18 05:15:00
12:35 AM,39.2,31.8,75,30.27,10.0,North,6.9,-,N/A,,Clear,360,2013-01-18 05:35:00
12:55 AM,39.2,31.5,74,30.29,10.0,NNE,4.6,-,N/A,,Clear,20,2013-01-18 05:55:00
1:15 AM,38.5,31.1,75,30.30,10.0,North,4.6,-,N/A,,Clear,350,2013-01-18 06:15:00
1:35 AM,38.5,30.9,74,30.30,10.0,North,5.8,-,N/A,,Clear,10,2013-01-18 06:35:00
1:55 AM,38.3,30.7,74,30.31,10.0,North,6.9,-,N/A,,Clear,10,2013-01-18 06:55:00
2:15 AM,38.3,30.6,74,30.32,10.0,North,3.5,-,N/A,,Clear,10,2013-01-18 07:15:00
2:35 AM,37.6,30.6,76,30.32,10.0,NNE,5.8,-,N/A,,Clear,30,2013-01-18 07:35:00
2:55 AM,37.4,30.2,75,30.32,10.0,NNE,4.6,-,N/A,,Clear,20,2013-01-18 07:55:00
3:15 AM,36.9,30.0,76,30.33,10.0,NNE,3.5,-,N/A,,Clear,20,2013-01-18 08:15:00
3:35 AM,36.5,30.0,77,30.33,10.0,North,3.5,-,N/A,,Clear,10,2013-01-18 08:35:00
3:55 AM,36.3,30.0,78,30.34,10.0,NNE,3.5,-,N/A,,Clear,30,2013-01-18 08:55:00
4:15 AM,35.6,30.2,81,30.34,10.0,Calm,Calm,-,N/A,,Clear,0,2013-01-18 09:15:00
4:35 AM,35.4,30.0,81,30.34,10.0,Calm,Calm,-,N/A,,Clear,0,2013-01-18 09:35:00
4:55 AM,35.1,29.8,81,30.34,10.0,NNE,4.6,-,N/A,,Clear,20,2013-01-18 09:55:00
5:15 AM,35.2,29.3,79,30.35,10.0,NNE,4.6,-,N/A,,Clear,30,2013-01-18 10:15:00
5:35 AM,35.1,28.8,78,30.36,10.0,NNE,4.6,-,N/A,,Clear,20,2013-01-18 10:35:00
5:55 AM,34.7,28.8,79,30.36,10.0,North,4.6,-,N/A,,Clear,10,2013-01-18 10:55:00
6:15 AM,34.2,29.1,82,30.37,10.0,North,4.6,-,N/A,,Clear,360,2013-01-18 11:15:00
6:35 AM,33.8,28.8,82,30.38,10.0,North,3.5,-,N/A,,Clear,10,2013-01-18 11:35:00
6:55 AM,33.6,28.4,81,30.40,10.0,Calm,Calm,-,N/A,,Clear,0,2013-01-18 11:55:00
7:15 AM,33.6,28.4,81,30.41,10.0,Calm,Calm,-,N/A,,Clear,0,2013-01-18 12:15:00
7:35 AM,31.5,29.1,91,30.42,10.0,Calm,Calm,-,N/A,,Clear,0,2013-01-18 12:35:00
7:55 AM,30.4,28.0,91,30.42,10.0,Calm,Calm,-,N/A,,Clear,0,2013-01-18 12:55:00
8:15 AM,30.6,29.1,94,30.44,10.0,Calm,Calm,-,N/A,,Clear,0,2013-01-18 13:15:00
8:35 AM,32.2,30.6,94,30.45,10.0,Calm,Calm,-,N/A,,Clear,0,2013-01-18 13:35:00
8:55 AM,35.1,30.6,84,30.45,10.0,Calm,Calm,-,N/A,,Clear,0,2013-01-18 13:55:00
9:15 AM,37.0,29.8,75,30.47,10.0,NNE,3.5,-,N/A,,Clear,30,2013-01-18 14:15:00
9:35 AM,38.8,30.6,72,30.49,10.0,Calm,Calm,-,N/A,,Clear,0,2013-01-18 14:35:00
9:55 AM,40.5,30.2,67,30.50,10.0,ENE,3.5,-,N/A,,Clear,60,2013-01-18 14:55:00
10:15 AM,41.5,29.1,61,30.51,10.0,NE,4.6,-,N/A,,Clear,40,2013-01-18 15:15:00
10:35 AM,42.3,29.1,60,30.51,10.0,NNE,3.5,-,N/A,,Clear,20,2013-01-18 15:35:00
10:55 AM,44.1,29.8,57,30.51,10.0,NNE,3.5,-,N/A,,Clear,20,2013-01-18 15:55:00
11:15 AM,45.0,29.7,55,30.51,10.0,ENE,4.6,-,N/A,,Clear,60,2013-01-18 16:15:00
11:35 AM,46.2,30.7,55,30.50,10.0,North,3.5,-,N/A,,Clear,10,2013-01-18 16:35:00
11:55 AM,47.3,30.4,52,30.50,10.0,Calm,Calm,-,N/A,,Clear,0,2013-01-18 16:55:00
12:15 PM,48.7,30.2,49,30.49,10.0,WNW,4.6,-,N/A,,Clear,300,2013-01-18 17:15:00
12:35 PM,49.1,30.2,48,30.47,10.0,North,3.5,-,N/A,,Clear,350,2013-01-18 17:35:00
12:55 PM,50.9,30.4,45,30.46,10.0,Calm,Calm,-,N/A,,Clear,0,2013-01-18 17:55:00
1:15 PM,51.1,29.1,43,30.46,10.0,Calm,Calm,-,N/A,,Clear,0,2013-01-18 18:15:00
1:35 PM,52.0,27.0,38,30.46,10.0,North,3.5,-,N/A,,Clear,10,2013-01-18 18:35:00
1:55 PM,53.1,27.9,38,30.45,10.0,NNW,6.9,-,N/A,,Clear,340,2013-01-18 18:55:00
2:15 PM,54.3,28.8,38,30.45,10.0,NW,6.9,-,N/A,,Clear,320,2013-01-18 19:15:00
2:35 PM,53.8,27.5,36,30.45,10.0,Calm,Calm,-,N/A,,Clear,0,2013-01-18 19:35:00
2:55 PM,54.1,26.8,35,30.45,10.0,Calm,Calm,-,N/A,,Clear,0,2013-01-18 19:55:00
3:15 PM,54.5,27.0,35,30.44,10.0,Calm,Calm,-,N/A,,Clear,0,2013-01-18 20:15:00
3:35 PM,55.8,28.6,35,30.44,10.0,East,3.5,-,N/A,,Clear,90,2013-01-18 20:35:00
3:55 PM,55.4,27.3,34,30.44,10.0,Calm,Calm,-,N/A,,Clear,0,2013-01-18 20:55:00
4:15 PM,55.6,27.3,34,30.43,10.0,NNE,3.5,-,N/A,,Clear,30,2013-01-18 21:15:00
4:35 PM,55.4,26.8,33,30.43,10.0,NNW,3.5,-,N/A,,Clear,340,2013-01-18 21:35:00
4:55 PM,55.6,26.6,33,30.43,10.0,NE,3.5,-,N/A,,Clear,50,2013-01-18 21:55:00
5:15 PM,55.4,25.3,31,30.43,10.0,East,4.6,-,N/A,,Clear,80,2013-01-18 22:15:00
5:35 PM,54.7,27.0,34,30.43,10.0,Calm,Calm,-,N/A,,Clear,0,2013-01-18 22:35:00
5:55 PM,52.5,28.4,39,30.44,10.0,Calm,Calm,-,N/A,,Clear,0,2013-01-18 22:55:00
6:15 PM,47.7,31.3,53,30.43,10.0,Calm,Calm,-,N/A,,Clear,0,2013-01-18 23:15:00
6:35 PM,45.9,34.3,64,30.44,10.0,Calm,Calm,-,N/A,,Clear,0,2013-01-18 23:35:00
6:55 PM,41.5,33.1,72,30.44,10.0,Calm,Calm,-,N/A,,Clear,0,2013-01-18 23:55:00
7:15 PM,41.5,34.2,75,30.44,10.0,Calm,Calm,-,N/A,,Clear,0,2013-01-19 00:15:00
7:35 PM,41.0,34.7,78,30.45,10.0,Calm,Calm,-,N/A,,Clear,0,2013-01-19 00:35:00
7:55 PM,39.0,34.2,83,30.45,10.0,Calm,Calm,-,N/A,,Clear,0,2013-01-19 00:55:00
8:15 PM,36.1,32.0,85,30.45,10.0,Calm,Calm,-,N/A,,Clear,0,2013-01-19 01:15:00
8:35 PM,36.5,33.1,87,30.45,10.0,Calm,Calm,-,N/A,,Clear,0,2013-01-19 01:35:00
8:55 PM,36.1,32.7,87,30.45,10.0,Calm,Calm,-,N/A,,Clear,0,2013-01-19 01:55:00
9:15 PM,35.2,32.2,89,30.45,10.0,Calm,Calm,-,N/A,,Clear,0,2013-01-19 02:15:00
9:35 PM,34.5,32.7,93,30.45,10.0,Calm,Calm,-,N/A,,Clear,0,2013-01-19 02:35:00
9:55 PM,33.4,32.2,95,30.45,10.0,Calm,Calm,-,N/A,,Clear,0,2013-01-19 02:55:00
10:15 PM,33.8,32.0,93,30.45,10.0,Calm,Calm,-,N/A,,Clear,0,2013-01-19 03:15:00
10:35 PM,32.9,31.3,94,30.45,10.0,Calm,Calm,-,N/A,,Clear,0,2013-01-19 03:35:00
10:55 PM,32.9,32.0,96,30.45,10.0,Calm,Calm,-,N/A,,Clear,0,2013-01-19 03:55:00
11:15 PM,32.2,31.3,96,30.45,10.0,Calm,Calm,-,N/A,,Clear,0,2013-01-19 04:15:00
11:35 PM,32.0,30.6,94,30.44,10.0,Calm,Calm,-,N/A,,Clear,0,2013-01-19 04:35:00
11:55 PM,32.0,31.5,98,30.44,10.0,Calm,Calm,-,N/A,,Clear,0,2013-01-19 04:55:00